Tracking 29034 objects as of 25-Jun-2024
HD Live streaming from Space Station
objects crossing your sky now

STARLINK-30238

Track STARLINK-30238 now!
10-day predictions
STARLINK-30238 is classified as:


NORAD ID: 57296
Int'l Code: 2023-096G
Perigee: 565.3 km
Apogee: 566.9 km
Inclination: 43.0 °
Period: 95.8 minutes
Semi major axis: 6937 km
RCS: Unknown
Launch date: July 10, 2023
Source: United States (US)
Launch site: AIR FORCE EASTERN TEST RANGE (AFETR)
Your satellite tracking list
Your tracking list is empty




NASA's NSSDC Master Catalog

Two Line Element Set (TLE):
1 57296U 23096G   24176.51429434 -.00004656  00000-0 -32949-3 0  9994
2 57296  43.0002   9.4976 0001200 308.2170  51.8565 15.02574985 52776
Source of the keplerian elements: AFSPC